[[{"header":{"parameterUnit":"m.s-1","parameterCategory":1,"la1":30.2991,"la2":30.254,"lo1":-89.0895,"lo2":-89.0444,"dy":0.0017,"dx":0.0017,"nx":28,"ny":28,"refTime":"2024-04-15T03:00:00:Z","depth":0,"parameterNumber":2,"parameterNumberName":"U-component_of_WINDS"},"data":[0,0,0,0,0,0,0,0,0,0,0,0,0,0,0,0,0,0,0,0,0,0,0,0,0,0,0,0,0,0,0,0,0,0,0,0,0,0,0,0,0,0,0,0,0,0,0,0,0,0,0,0,0,0,0,0,0,0,-2.3346,-2.3345,0,-2.326,-2.3259,-2.3258,-2.316,-2.3159,-2.3157,-2.3156,-2.3066,-2.3065,-2.3064,0,0,0,0,0,0,0,0,0,0,0,0,0,-2.3424,-2.3423,-2.3346,-2.3345,-2.3344,-2.326,-2.3259,-2.3258,-2.316,-2.3159,-2.3157,-2.3155,-2.3066,-2.3065,-2.3064,0,0,0,0,0,0,0,0,0,0,0,0,0,-2.3369,-2.3423,-2.3346,-2.3285,-2.3279,-2.3261,-2.3259,-2.3258,-2.3161,-2.3158,-2.3156,-2.3154,-2.3067,-2.3065,-2.3064,-2.3098,0,0,-2.3059,-2.3058,0,0,0,0,0,0,0,0,-2.3373,-2.3367,-2.3295,-2.3289,-2.3282,-2.3219,-2.3254,-2.3204,-2.3161,-2.3205,-2.3156,-2.3153,-2.3118,-2.3113,-2.3101,-2.3094,-2.309,-2.3059,-2.3058,-2.3057,-2.3057,0,0,0,0,0,0,0,-2.3377,-2.337,-2.3312,-2.3294,-2.3286,-2.3262,-2.3251,-2.3244,-2.3175,-2.3201,-2.3194,-2.3185,-2.3114,-2.3103,-2.3098,-2.3089,-2.3059,-2.3058,-2.3057,-2.3056,-2.3106,-2.3108,0,0,0,0,0,0,-2.339,-2.3374,-2.3315,-2.3309,-2.3323,-2.3262,-2.3251,-2.3241,-2.3175,-2.3163,-2.3187,-2.3181,-2.3107,-2.31,-2.3095,-2.313,-2.3057,-2.3056,-2.3055,-2.3103,-2.3106,-2.3108,0,0,0,0,0,0,-2.3392,-2.3385,-2.3318,-2.3339,-2.3329,-2.3263,-2.3253,-2.3241,-2.3229,-2.3164,-2.3152,-2.3188,-2.3105,-2.3097,-2.3098,-2.3126,-2.3055,-2.3054,-2.3101,-2.3104,-2.3107,-2.3202,0,0,0,0,0,0,-2.3394,-2.3387,-2.3399,-2.334,-2.3328,-2.3323,-2.3255,-2.3241,-2.3227,-2.3218,-2.3162,-2.315,-2.3102,-2.3101,-2.3097,-2.3122,-2.3053,-2.3098,-2.3102,-2.3106,-2.3196,-2.3208,-2.3218,0,0,0,0,0,-2.3398,-2.3429,-2.34,-2.3394,-2.3343,-2.3325,-2.3318,-2.3263,-2.3229,-2.3241,-2.32,-2.3152,-2.3124,-2.3102,-2.3096,-2.3122,-2.3096,-2.3101,-2.3106,-2.3191,-2.3205,-2.3218,0,0,0,0,0,0,-2.3491,-2.342,-2.3387,-2.3401,-2.337,-2.3309,-2.3321,-2.328,-2.3257,-2.325,-2.3182,-2.317,-2.3179,-2.3151,-2.3127,-2.3152,-2.3103,-2.3107,-2.317,-2.3183,-2.3194,-2.32,-2.3051,0,0,0,0,0,-2.3514,-2.3506,-2.3444,-2.3461,-2.3448,-2.3388,-2.3378,-2.3339,-2.3303,-2.329,-2.3248,-2.3216,-2.3199,-2.319,-2.3171,-2.3192,-2.3178,-2.3207,-2.3218,-2.3228,-2.3231,-2.324,-2.3252,-2.3125,-2.3125,-2.3125,0,0,-2.3559,-2.3519,-2.3518,-2.3479,-2.3451,-2.3444,-2.3377,-2.3373,-2.3367,-2.3288,-2.3287,-2.3256,-2.3215,-2.3227,-2.3229,-2.3203,-2.3264,-2.3234,-2.3242,-2.3241,-2.3246,-2.3259,-2.3269,-2.3128,-2.3128,-2.3127,0,0,-2.3638,-2.3608,-2.3619,-2.3592,-2.3551,-2.3511,-2.3514,-2.3459,-2.3436,-2.3434,-2.3375,-2.3367,-2.3341,-2.3314,-2.3297,-2.3369,-2.3324,-2.3365,-2.3423,-2.3432,-2.3442,-2.345,-2.3475,-2.3485,-2.3369,-2.337,-2.337,0,-2.37,-2.3687,-2.363,-2.3629,-2.3614,-2.3544,-2.3555,-2.3532,-2.3486,-2.3477,-2.3448,-2.3414,-2.3382,-2.3386,-2.3404,-2.3393,-2.3393,-2.337,-2.3445,-2.3453,-2.346,-2.3483,-2.3492,-2.3375,-2.3374,-2.3374,-2.3373,0,-2.3765,-2.3758,-2.3772,-2.373,-2.3716,-2.3722,-2.3665,-2.3658,-2.362,-2.3584,-2.3582,-2.3542,-2.3514,-2.3512,-2.3475,-2.3511,-2.3496,-2.3458,-2.3407,-2.3478,-2.3498,-2.3507,-2.3382,-2.338,-2.3379,-2.3377,0,0,-2.3898,-2.3826,-2.3832,-2.3813,-2.3762,-2.3755,-2.3758,-2.3731,-2.3726,-2.3698,-2.3698,-2.3678,-2.3643,-2.3624,-2.3583,-2.3592,-2.365,-2.3552,-2.355,-2.357,-2.3687,-2.3715,-2.3726,-2.3621,-2.3623,-2.3624,-2.369,0,-2.3967,-2.3967,-2.3916,-2.393,-2.3922,-2.3858,-2.3859,-2.3829,-2.3796,-2.3784,-2.3747,-2.3733,-2.3688,-2.3676,-2.3682,-2.3642,-2.3672,-2.3637,-2.3619,-2.3619,-2.3629,-2.3736,-2.3765,-2.3829,-2.3697,-2.3699,-2.37,0,-2.4046,-2.4023,-2.4037,-2.3987,-2.3982,-2.3985,-2.3957,-2.3947,-2.3911,-2.3886,-2.3867,-2.3821,-2.3819,-2.3774,-2.377,-2.3747,-2.3738,-2.3717,-2.3718,-2.3713,-2.3662,-2.3732,-2.3848,-2.3858,-2.3712,-2.3711,-2.371,0,-2.4141,-2.4113,-2.4118,-2.4103,-2.4046,-2.4049,-2.4025,-2.3987,-2.3975,-2.3951,-2.3942,-2.3919,-2.3905,-2.3888,-2.3837,-2.3808,-2.3839,-2.3789,-2.3817,-2.3819,-2.3825,-2.3825,-2.394,-2.3822,-2.3822,-2.3822,-2.3822,0,-2.4221,-2.4232,-2.4159,-2.4162,-2.4172,-2.4114,-2.4126,-2.4095,-2.4063,-2.4058,-2.4001,-2.3998,-2.3932,-2.3922,-2.3882,-2.3885,-2.388,-2.3859,-2.3848,-2.3863,-2.3866,-2.3854,-2.3847,-2.3824,-2.3824,-2.3823,-2.3823,0,-2.4327,-2.4279,-2.428,-2.4226,-2.4213,-2.4222,-2.4176,-2.4176,-2.414,-2.4135,-2.413,-2.4074,-2.4058,-2.4007,-2.3979,-2.3952,-2.3967,-2.3947,-2.3979,-2.3972,-2.4002,-2.4,-2.4112,-2.4124,-2.4001,-2.4003,-2.4004,0,-2.4381,-2.4388,-2.4335,-2.4328,-2.4307,-2.4297,-2.4285,-2.4229,-2.4218,-2.4179,-2.4184,-2.4165,-2.4145,-2.4124,-2.408,-2.4058,-2.4037,-2.4078,-2.4033,-2.4048,-2.4035,-2.4035,-2.4035,-2.4087,-2.4088,-2.409,-2.4091,0,-2.4481,-2.4458,-2.4442,-2.4419,-2.4406,-2.4385,-2.4361,-2.4359,-2.4296,-2.4287,-2.4271,-2.4257,-2.4229,-2.421,-2.4182,-2.4156,-2.4113,-2.4106,-2.4111,-2.4125,-2.4143,-2.4132,-2.4004,-2.4103,-2.4101,-2.4101,-2.41,-2.4099,-2.4561,-2.4564,-2.4528,-2.4513,-2.4489,-2.4468,-2.4466,-2.443,-2.4416,-2.439,-2.4358,-2.4346,-2.4311,-2.4268,-2.4247,-2.4236,-2.4213,-2.422,-2.4222,-2.4224,-2.4231,-2.4147,-2.4231,-2.4231,-2.423,-2.423,-2.423,0,-2.4657,-2.4631,-2.4618,-2.4587,-2.4575,-2.4537,-2.4509,-2.4501,-2.4492,-2.4463,-2.4447,-2.4429,-2.4411,-2.4367,-2.4344,-2.4344,-2.4324,-2.434,-2.4338,-2.4333,-2.4254,-2.4251,-2.4357,-2.4357,-2.4357,-2.4357,-2.4357,-2.4357,-2.4705,-2.4709,-2.4681,-2.4672,-2.4646,-2.4634,-2.4621,-2.4602,-2.4578,-2.4561,-2.4547,-2.4518,-2.4483,-2.4458,-2.444,-2.4427,-2.4421,-2.4444,-2.4424,-2.4351,-2.4339,-2.4327,-2.4324,-2.4443,-2.4443,-2.4504,-2.4504,-2.4505]},{"header":{"parameterUnit":"m.s-1","parameterCategory":1,"la1":30.2991,"la2":30.254,"lo1":-89.0895,"lo2":-89.0444,"dy":0.0017,"dx":0.0017,"nx":28,"ny":28,"refTime":"2024-04-15T03:00:00:Z","depth":0,"parameterNumber":3,"parameterNumberName":"V-component_of_WINDS"},"data":[0,0,0,0,0,0,0,0,0,0,0,0,0,0,0,0,0,0,0,0,0,0,0,0,0,0,0,0,0,0,0,0,0,0,0,0,0,0,0,0,0,0,0,0,0,0,0,0,0,0,0,0,0,0,0,0,0,0,2.4646,2.4646,0,2.4644,2.4644,2.4644,2.4673,2.4674,2.4675,2.4675,2.467,2.4669,2.4668,0,0,0,0,0,0,0,0,0,0,0,0,0,2.4671,2.467,2.4646,2.4646,2.4646,2.4644,2.4644,2.4644,2.4673,2.4674,2.4675,2.4676,2.467,2.4669,2.4668,0,0,0,0,0,0,0,0,0,0,0,0,0,2.4664,2.467,2.4646,2.466,2.4661,2.4644,2.4644,2.4644,2.4673,2.4674,2.4675,2.4676,2.4671,2.467,2.4668,2.4636,0,0,2.4664,2.4664,0,0,0,0,0,0,0,0,2.4664,2.4663,2.4658,2.4659,2.466,2.466,2.4651,2.4641,2.4672,2.4668,2.4675,2.4677,2.4666,2.4665,2.4662,2.4636,2.4636,2.4664,2.4663,2.4663,2.4662,0,0,0,0,0,0,0,2.4665,2.4663,2.4645,2.4658,2.4659,2.4666,2.4666,2.4649,2.466,2.4669,2.4671,2.467,2.4666,2.4663,2.4662,2.4636,2.4664,2.4663,2.4662,2.4662,2.4586,2.4585,0,0,0,0,0,0,2.4664,2.4663,2.4645,2.4645,2.4665,2.4664,2.4664,2.4659,2.466,2.4662,2.4669,2.4672,2.4665,2.4663,2.4662,2.4626,2.4663,2.4662,2.4661,2.4587,2.4586,2.4584,0,0,0,0,0,0,2.4664,2.4662,2.4645,2.4655,2.4653,2.4662,2.4656,2.4658,2.4655,2.4661,2.4663,2.4664,2.4666,2.4664,2.4643,2.4626,2.4661,2.466,2.4588,2.4587,2.4585,2.4554,0,0,0,0,0,0,2.4665,2.4662,2.465,2.4654,2.4652,2.4627,2.4655,2.4657,2.4653,2.4656,2.4657,2.4658,2.4666,2.4645,2.4642,2.4625,2.4659,2.459,2.4588,2.4585,2.4556,2.4551,2.4546,0,0,0,0,0,2.4665,2.464,2.4649,2.4647,2.4638,2.4626,2.4625,2.4637,2.4651,2.464,2.4644,2.4658,2.4629,2.4643,2.4639,2.4622,2.4591,2.4588,2.4586,2.4558,2.4552,2.4547,0,0,0,0,0,0,2.4632,2.4641,2.4651,2.4627,2.4626,2.4631,2.4617,2.4629,2.4623,2.4626,2.4639,2.4639,2.4616,2.4617,2.4633,2.4592,2.4612,2.4609,2.4593,2.4587,2.4582,2.4583,2.4658,0,0,0,0,0,2.4623,2.4613,2.462,2.4598,2.4597,2.4607,2.4602,2.4611,2.461,2.4609,2.4612,2.4609,2.46,2.4593,2.4584,2.4556,2.4557,2.4543,2.4538,2.4534,2.4531,2.4517,2.4511,2.4575,2.4575,2.4575,0,0,2.4601,2.4605,2.4598,2.4592,2.4592,2.4581,2.4606,2.4593,2.4585,2.4607,2.4589,2.459,2.4588,2.4564,2.4554,2.4564,2.4513,2.453,2.4527,2.4526,2.4514,2.4508,2.4502,2.4573,2.4574,2.4574,0,0,2.4558,2.4559,2.4542,2.4542,2.4543,2.455,2.4545,2.4549,2.4552,2.4534,2.455,2.454,2.4523,2.4522,2.4519,2.4476,2.4489,2.4473,2.4447,2.4434,2.4429,2.4425,2.4411,2.4406,2.447,2.447,2.4469,0,2.4532,2.4517,2.4531,2.4518,2.4515,2.4535,2.4518,2.4517,2.4514,2.4511,2.4523,2.4503,2.4503,2.448,2.447,2.4466,2.4462,2.4473,2.4429,2.4425,2.4421,2.4408,2.4402,2.4468,2.4468,2.4468,2.4468,0,2.4485,2.4475,2.446,2.4459,2.4454,2.4439,2.445,2.4443,2.4453,2.4458,2.444,2.4441,2.4434,2.4429,2.4437,2.4407,2.4414,2.4427,2.4448,2.4413,2.4401,2.4396,2.4465,2.4466,2.4466,2.4467,0,0,2.4421,2.4429,2.4423,2.4424,2.4426,2.4418,2.4403,2.4398,2.4393,2.439,2.4378,2.4364,2.4377,2.4373,2.4382,2.437,2.4338,2.4385,2.4385,2.4377,2.4306,2.4297,2.4291,2.4346,2.4345,2.4345,2.4307,0,2.438,2.4357,2.437,2.4345,2.4336,2.4355,2.4343,2.4343,2.4348,2.434,2.4345,2.4335,2.4352,2.4351,2.434,2.4344,2.4324,2.4347,2.4336,2.4335,2.4337,2.4285,2.4275,2.4239,2.4302,2.4301,2.4301,0,2.4329,2.4327,2.4301,2.4307,2.4304,2.4292,2.4289,2.4282,2.4282,2.4286,2.4283,2.4295,2.4281,2.4301,2.4282,2.4297,2.4293,2.4295,2.4294,2.4294,2.4317,2.4285,2.4228,2.4223,2.4293,2.4294,2.4294,0,2.4287,2.4277,2.4261,2.426,2.4266,2.4258,2.426,2.4261,2.4258,2.4254,2.4252,2.4246,2.4243,2.4238,2.4248,2.4262,2.4228,2.4249,2.4232,2.4232,2.4224,2.4225,2.4168,2.422,2.422,2.422,2.422,0,2.4241,2.4225,2.4242,2.4232,2.4215,2.4229,2.4211,2.4215,2.4217,2.4208,2.4223,2.4215,2.4228,2.422,2.4227,2.4211,2.4209,2.4212,2.4215,2.4212,2.4211,2.421,2.4213,2.4219,2.4219,2.4219,2.4219,0,2.4191,2.4202,2.4186,2.4193,2.4195,2.4182,2.4188,2.4179,2.4185,2.4174,2.4172,2.4181,2.4173,2.4183,2.4174,2.4179,2.4158,2.4163,2.4159,2.4161,2.4143,2.4145,2.4084,2.4077,2.4133,2.4132,2.4132,0,2.4161,2.415,2.4157,2.4153,2.4154,2.4147,2.4144,2.4157,2.4153,2.4153,2.4144,2.4138,2.4134,2.412,2.4125,2.412,2.4126,2.4105,2.4125,2.4123,2.4127,2.4128,2.4128,2.4101,2.41,2.4099,2.4099,0,2.4108,2.4114,2.411,2.4108,2.4104,2.4102,2.4102,2.4097,2.4111,2.4106,2.4098,2.4095,2.4088,2.4082,2.4078,2.4079,2.4091,2.4093,2.4089,2.4086,2.4084,2.4086,2.4149,2.4094,2.4095,2.4095,2.4095,2.4095,2.4068,2.406,2.4064,2.4058,2.406,2.4059,2.4052,2.4058,2.4053,2.4049,2.4057,2.4048,2.4049,2.4046,2.4046,2.4039,2.4048,2.4041,2.404,2.4039,2.4037,2.4085,2.4038,2.4038,2.4038,2.4038,2.4038,0,2.4017,2.4021,2.4016,2.4016,2.4012,2.4025,2.4025,2.4021,2.4013,2.4014,2.401,2.4002,2.3996,2.4002,2.3998,2.3991,2.3996,2.3989,2.399,2.3991,2.4028,2.4033,2.3985,2.3985,2.3985,2.3985,2.3985,2.3985,2.3991,2.3977,2.3984,2.3971,2.3975,2.3968,2.3967,2.3966,2.3968,2.3959,2.3954,2.3959,2.3962,2.3957,2.3953,2.3955,2.3953,2.3944,2.3947,2.3983,2.3988,2.3993,2.3997,2.3943,2.3943,2.3911,2.391,2.391]}]]